ZTF彗星

C/2022 E3 ( ZTF )

English version
Home page
Updated on September 11, 2022

---------------------------------------------------------------------

・ プロフィール

発見日 2022年3月2日
発見光度 17.2等
発見者 Zwicky Transient Facility (ZTF)

・ 写真集

・ 軌道要素

Epoch 2022 Aug. 9.0 TT = JDT 2459800.5
T 2023 Jan. 12.78685 TT                                 Rudenko
q   1.1122493            (2000.0)            P               Q
z  -0.0002455      Peri.  145.81494     -0.60062723     -0.07339300
 +/-0.0000017      Node   302.55387     +0.33753501     +0.87941449
e   1.0002731      Incl.  109.16857     +0.72478759     -0.47036541
From 3301 observations 2021 Oct. 25-2022 Sept. 8, mean residual 0".4.

・ 星図

・ 光度変化

        m1 = -2.0 + 5 logΔ + 25   log r  [    ,-288]  (              〜2022年 3月30日)
        m1 =  7.0 + 5 logΔ + 10.0 log r  [-288,    ]  (2022年 3月30日〜              )

---------------------------------------------------------------------

軌道要素はM.P.E.C. 2022-R139に掲載されたものです。
星図はステラナビゲータ Ver.10 (アストロアーツ) で作成したものです。
光度グラフはComet for Windowsで作成したものです。

---------------------------------------------------------------------

Copyright(C) Seiichi Yoshida (comet@aerith.net). All rights reserved.